This is the latest recevied weather packets stored in our database for station/object W6MAF. If no packets are shown the sender has not sent any weather packets the latest 10 day(s).
| Time | Temp. | Humidity | Pressure | Rain* | Wind** | Luminosity | Snow |
|---|---|---|---|---|---|---|---|
| 1788177558 | 17.22° C | 62% | - | 0 mm | 4.92 m/s, 207° | - | - |
| 1788177261 | 17.22° C | 62% | - | 0 mm | 6.71 m/s, 212° | - | - |
| 1788176963 | 17.22° C | 60% | - | 0 mm | 5.36 m/s, 214° | - | - |
| 1788176665 | 17.22° C | 60% | - | 0 mm | 6.71 m/s, 217° | - | - |
| 1788176368 | 17.22° C | 61% | - | 0 mm | 5.81 m/s, 198° | - | - |
| 1788176070 | 17.22° C | 60% | - | 0 mm | 6.26 m/s, 205° | - | - |
| 1788175769 | 17.22° C | 60% | - | 0 mm | 6.26 m/s, 211° | - | - |
| 1788175471 | 17.22° C | 62% | - | 0 mm | 5.81 m/s, 211° | - | - |
| 1788175174 | 17.22° C | 63% | - | 0 mm | 5.36 m/s, 210° | - | - |
| 1788174876 | 17.22° C | 63% | - | 0 mm | 4.02 m/s, 212° | - | - |
| 1788174578 | 17.22° C | 62% | - | 0 mm | 2.68 m/s, 205° | - | - |
| 1788174282 | 17.22° C | 60% | - | 0 mm | 4.02 m/s, 232° | - | - |
| 1788173980 | 17.22° C | 60% | - | 0 mm | 4.47 m/s, 207° | - | - |
| 1788173682 | 17.22° C | 61% | - | 0 mm | 4.92 m/s, 243° | - | - |
| 1788173384 | 17.22° C | 61% | - | 0 mm | 4.47 m/s, 194° | - | - |
| 1788173087 | 17.22° C | 60% | - | 0 mm | 4.02 m/s, 239° | - | - |
| 1788172789 | 17.22° C | 59% | - | 0 mm | 3.58 m/s, 238° | - | - |
| 1788172491 | 17.22° C | 57% | - | 0 mm | 4.92 m/s, 221° | - | - |
| 1788172190 | 17.78° C | 56% | - | 0 mm | 4.02 m/s, 233° | - | - |
| 1788171893 | 17.78° C | 54% | - | 0 mm | 4.92 m/s, 194° | - | - |
| 1788171595 | 17.78° C | 52% | - | 0 mm | 4.92 m/s, 228° | - | - |
| 1788171297 | 18.33° C | 49% | - | 0 mm | 5.36 m/s, 207° | - | - |
| 1788170999 | 18.33° C | 47% | - | 0 mm | 5.36 m/s, 219° | - | - |
| 1788170702 | 18.33° C | 46% | - | 0 mm | 5.81 m/s, 193° | - | - |
| 1788170401 | 18.33° C | 45% | - | 0 mm | 6.26 m/s, 187° | - | - |
* Rain latest hour (hover to see other rain measurements)
** Current wind speed in m/s (hover to see current wind gust speed)